Location: Kellogg
(38.0159°N, 90.0546°W)
Time: 07:32:44
(UTC+00:00)

Vanguard 1 Rocket - Pass Details

Date: 21 September 2024
Orbit: 650 x 4218 km, 34.3° (Epoch: 05 October)

Event Time Altitude Azimuth Distance (km) Brightness Sun altitude
Rises 15:05:06 0° 285° (WNW) 7,399 11.6 36.1°
Reaches altitude 10° 15:10:12 10° 279° (W) 6,743 11.5 36.9°
Maximum altitude 15:30:47 38° 221° (SW) 5,414 11.7 40.1°
Drops below altitude 10° 15:51:39 10° 163° (SSE) 6,720 12.7 43.1°
Sets 15:56:53 0° 155° (SSE) 7,359 12.8 43.8°
